Tracking 31027 objects as of 19-Jul-2025
HD Live streaming from Space Station
objects crossing your sky now

ONEWEB-0660

Track ONEWEB-0660 now!
10-day predictions
ONEWEB-0660 is classified as:


NORAD ID: 55820
Int'l Code: 2023-029AA
Perigee: 1,211.3 km
Apogee: 1,214.6 km
Inclination: 87.9 °
Period: 109.5 minutes
Semi major axis: 7583 km
RCS: Unknown
Launch date: March 9, 2023
Source: United Kingdom (UK)
Launch site: AIR FORCE EASTERN TEST RANGE (AFETR)
Your satellite tracking list
COSMOS 1275 DEB
Track 1 satellite(s)




NASA's NSSDC Master Catalog

Two Line Element Set (TLE):
1 55820U 23029AA  25199.42627942  .00000242  00000-0  61746-3 0  9993
2 55820  87.9055 356.0909 0002191  97.9034 262.2344 13.14503797115553
Source of the keplerian elements: AFSPC